Year,Month,Day,Hour,Minute,Value (Times are PST for temperature in C)
2015,05,30,00,00,13.90
2015,05,30,00,01,13.80
2015,05,30,00,02,13.80
2015,05,30,00,03,13.70
2015,05,30,00,04,13.60
2015,05,30,00,05,13.60
2015,05,30,00,06,13.60
2015,05,30,00,07,13.50
2015,05,30,00,08,13.50
2015,05,30,00,09,13.40
2015,05,30,00,10,13.40
2015,05,30,00,11,13.30
2015,05,30,00,12,13.40
2015,05,30,00,13,13.40
2015,05,30,00,14,13.40
2015,05,30,00,15,13.40
2015,05,30,00,16,13.30
2015,05,30,00,17,13.30
2015,05,30,00,18,13.30
2015,05,30,00,19,13.30
2015,05,30,00,20,13.30
2015,05,30,00,21,13.30
2015,05,30,00,22,13.30
2015,05,30,00,23,13.30
2015,05,30,00,24,13.30
2015,05,30,00,25,13.30
2015,05,30,00,26,13.30
2015,05,30,00,27,13.30
2015,05,30,00,28,13.30
2015,05,30,00,29,13.30
2015,05,30,00,30,13.30
2015,05,30,00,31,13.30
2015,05,30,00,32,13.30
2015,05,30,00,33,13.20
2015,05,30,00,34,13.20
2015,05,30,00,35,13.10
2015,05,30,00,36,13.00
2015,05,30,00,37,12.90
2015,05,30,00,38,12.90
2015,05,30,00,39,12.90
2015,05,30,00,40,12.90
2015,05,30,00,41,12.90
2015,05,30,00,42,12.90
2015,05,30,00,43,13.00
2015,05,30,00,44,13.00
2015,05,30,00,45,13.00
2015,05,30,00,46,12.90
2015,05,30,00,47,12.80
2015,05,30,00,48,12.80
2015,05,30,00,49,12.80
2015,05,30,00,50,12.80
2015,05,30,00,51,12.70
2015,05,30,00,52,12.70
2015,05,30,00,53,12.70
2015,05,30,00,54,12.60
2015,05,30,00,55,12.60
2015,05,30,00,56,12.60
2015,05,30,00,57,12.50
2015,05,30,00,58,12.50
2015,05,30,00,59,12.50
2015,05,30,01,00,12.50
2015,05,30,01,01,12.50
2015,05,30,01,02,12.40
2015,05,30,01,03,12.40
2015,05,30,01,04,12.50
2015,05,30,01,05,12.50
2015,05,30,01,06,12.50
2015,05,30,01,07,12.50
2015,05,30,01,08,12.40
2015,05,30,01,09,12.40
2015,05,30,01,10,12.30
2015,05,30,01,11,12.30
2015,05,30,01,12,12.30
2015,05,30,01,13,12.30
2015,05,30,01,14,12.40
2015,05,30,01,15,12.40
2015,05,30,01,16,12.40
2015,05,30,01,17,12.40
2015,05,30,01,18,12.40
2015,05,30,01,19,12.50
2015,05,30,01,20,12.40
2015,05,30,01,21,12.40
2015,05,30,01,22,12.40
2015,05,30,01,23,12.40
2015,05,30,01,24,12.40
2015,05,30,01,25,12.30
2015,05,30,01,26,12.30
2015,05,30,01,27,12.30
2015,05,30,01,28,12.20
2015,05,30,01,29,12.20
2015,05,30,01,30,12.20
2015,05,30,01,31,12.20
2015,05,30,01,32,12.10
2015,05,30,01,33,12.10
2015,05,30,01,34,12.10
2015,05,30,01,35,12.00
2015,05,30,01,36,12.00
2015,05,30,01,37,11.90
2015,05,30,01,38,11.90
2015,05,30,01,39,11.80
2015,05,30,01,40,11.80
2015,05,30,01,41,11.80
2015,05,30,01,42,11.80
2015,05,30,01,43,11.70
2015,05,30,01,44,11.70
2015,05,30,01,45,11.70
2015,05,30,01,46,11.60
2015,05,30,01,47,11.60
2015,05,30,01,48,11.60
2015,05,30,01,49,11.50
2015,05,30,01,50,11.50
2015,05,30,01,51,11.60
2015,05,30,01,52,11.60
2015,05,30,01,53,11.70
2015,05,30,01,54,11.70
2015,05,30,01,55,11.70
2015,05,30,01,56,11.70
2015,05,30,01,57,11.70
2015,05,30,01,58,11.70
2015,05,30,01,59,11.70
2015,05,30,02,00,11.60
2015,05,30,02,01,11.60
2015,05,30,02,02,11.50
2015,05,30,02,03,11.50
2015,05,30,02,04,11.40
2015,05,30,02,05,11.40
2015,05,30,02,06,11.40
2015,05,30,02,07,11.40
2015,05,30,02,08,11.30
2015,05,30,02,09,11.30
2015,05,30,02,10,11.30
2015,05,30,02,11,11.30
2015,05,30,02,12,11.30
2015,05,30,02,13,11.40
2015,05,30,02,14,11.40
2015,05,30,02,15,11.30
2015,05,30,02,16,11.30
2015,05,30,02,17,11.30
2015,05,30,02,18,11.20
2015,05,30,02,19,11.20
2015,05,30,02,20,11.20
2015,05,30,02,21,11.10
2015,05,30,02,22,11.10
2015,05,30,02,23,11.10
2015,05,30,02,24,11.10
2015,05,30,02,25,11.10
2015,05,30,02,26,11.10
2015,05,30,02,27,11.10
2015,05,30,02,28,11.10
2015,05,30,02,29,11.00
2015,05,30,02,30,11.00
2015,05,30,02,31,10.90
2015,05,30,02,32,10.90
2015,05,30,02,33,10.90
2015,05,30,02,34,10.90
2015,05,30,02,35,10.90
2015,05,30,02,36,10.90
2015,05,30,02,37,10.90
2015,05,30,02,38,10.80
2015,05,30,02,39,10.80
2015,05,30,02,40,10.80
2015,05,30,02,41,10.70
2015,05,30,02,42,10.70
2015,05,30,02,43,10.70
2015,05,30,02,44,10.70
2015,05,30,02,45,10.70
2015,05,30,02,46,10.60
2015,05,30,02,47,10.60
2015,05,30,02,48,10.60
2015,05,30,02,49,10.60
2015,05,30,02,50,10.70
2015,05,30,02,51,10.70
2015,05,30,02,52,10.80
2015,05,30,02,53,10.90
2015,05,30,02,54,10.90
2015,05,30,02,55,10.90
2015,05,30,02,56,10.90
2015,05,30,02,57,11.00
2015,05,30,02,58,11.10
2015,05,30,02,59,11.10
2015,05,30,03,00,11.20
2015,05,30,03,01,11.20
2015,05,30,03,02,11.30
2015,05,30,03,03,11.30
2015,05,30,03,04,11.40
2015,05,30,03,05,11.50
2015,05,30,03,06,11.60
2015,05,30,03,07,11.70
2015,05,30,03,08,11.70
2015,05,30,03,09,11.70
2015,05,30,03,10,11.80
2015,05,30,03,11,11.80
2015,05,30,03,12,11.80
2015,05,30,03,13,11.90
2015,05,30,03,14,11.90
2015,05,30,03,15,11.90
2015,05,30,03,16,11.90
2015,05,30,03,17,11.90
2015,05,30,03,18,11.90
2015,05,30,03,19,11.90
2015,05,30,03,20,11.80
2015,05,30,03,21,11.70
2015,05,30,03,22,11.70
2015,05,30,03,23,11.50
2015,05,30,03,24,11.40
2015,05,30,03,25,11.30
2015,05,30,03,26,11.20
2015,05,30,03,27,11.10
2015,05,30,03,28,11.00
2015,05,30,03,29,10.90
2015,05,30,03,30,10.80
2015,05,30,03,31,10.80
2015,05,30,03,32,10.70
2015,05,30,03,33,10.60
2015,05,30,03,34,10.60
2015,05,30,03,35,10.50
2015,05,30,03,36,10.50
2015,05,30,03,37,10.40
2015,05,30,03,38,10.40
2015,05,30,03,39,10.30
2015,05,30,03,40,10.30
2015,05,30,03,41,10.30
2015,05,30,03,42,10.30
2015,05,30,03,43,10.20
2015,05,30,03,44,10.20
2015,05,30,03,45,10.10
2015,05,30,03,46,10.10
2015,05,30,03,47,10.10
2015,05,30,03,48,10.00
2015,05,30,03,49,10.00
2015,05,30,03,50,9.90
2015,05,30,03,51,9.90
2015,05,30,03,52,9.90
2015,05,30,03,53,9.90
2015,05,30,03,54,9.90
2015,05,30,03,55,9.80
2015,05,30,03,56,9.80
2015,05,30,03,57,9.80
2015,05,30,03,58,9.80
2015,05,30,03,59,9.80
2015,05,30,04,00,9.70
2015,05,30,04,01,9.70
2015,05,30,04,02,9.70
2015,05,30,04,03,9.70
2015,05,30,04,04,9.70
2015,05,30,04,05,9.70
2015,05,30,04,06,9.60
2015,05,30,04,07,9.60
2015,05,30,04,08,9.60
2015,05,30,04,09,9.60
2015,05,30,04,10,9.60
2015,05,30,04,11,9.60
2015,05,30,04,12,9.60
2015,05,30,04,13,9.60
2015,05,30,04,14,9.60
2015,05,30,04,15,9.60
2015,05,30,04,16,9.50
2015,05,30,04,17,9.50
2015,05,30,04,18,9.50
2015,05,30,04,19,9.40
2015,05,30,04,20,9.40
2015,05,30,04,21,9.40
2015,05,30,04,22,9.40
2015,05,30,04,23,9.40
2015,05,30,04,24,9.40
2015,05,30,04,25,9.40
2015,05,30,04,26,9.40
2015,05,30,04,27,9.40
2015,05,30,04,28,9.40
2015,05,30,04,29,9.40
2015,05,30,04,30,9.40
2015,05,30,04,31,9.40
2015,05,30,04,32,9.40
2015,05,30,04,33,9.40
2015,05,30,04,34,9.40
2015,05,30,04,35,9.40
2015,05,30,04,36,9.40
2015,05,30,04,37,9.50
2015,05,30,04,38,9.60
2015,05,30,04,39,9.60
2015,05,30,04,40,9.70
2015,05,30,04,41,9.70
2015,05,30,04,42,9.80
2015,05,30,04,43,9.90
2015,05,30,04,44,9.90
2015,05,30,04,45,10.00
2015,05,30,04,46,10.00
2015,05,30,04,47,10.00
2015,05,30,04,48,9.90
2015,05,30,04,49,10.00
2015,05,30,04,50,10.00
2015,05,30,04,51,10.10
2015,05,30,04,52,10.20
2015,05,30,04,53,10.20
2015,05,30,04,54,10.20
2015,05,30,04,55,10.30
2015,05,30,04,56,10.30
2015,05,30,04,57,10.30
2015,05,30,04,58,10.20
2015,05,30,04,59,10.20
2015,05,30,05,00,10.10
2015,05,30,05,01,10.10
2015,05,30,05,02,10.10
2015,05,30,05,03,10.10
2015,05,30,05,04,10.10
2015,05,30,05,05,10.10
2015,05,30,05,06,10.10
2015,05,30,05,07,10.00
2015,05,30,05,08,10.00
2015,05,30,05,09,9.90
2015,05,30,05,10,9.80
2015,05,30,05,11,9.80
2015,05,30,05,12,9.80
2015,05,30,05,13,9.80
2015,05,30,05,14,9.70
2015,05,30,05,15,9.70
2015,05,30,05,16,9.60
2015,05,30,05,17,9.60
2015,05,30,05,18,9.50
2015,05,30,05,19,9.50
2015,05,30,05,20,9.40
2015,05,30,05,21,9.40
2015,05,30,05,22,9.30
2015,05,30,05,23,9.30
2015,05,30,05,24,9.30
2015,05,30,05,25,9.30
2015,05,30,05,26,9.30
2015,05,30,05,27,9.30
2015,05,30,05,28,9.20
2015,05,30,05,29,9.20
2015,05,30,05,30,9.20
2015,05,30,05,31,9.20
2015,05,30,05,32,9.20
2015,05,30,05,33,9.20
2015,05,30,05,34,9.20
2015,05,30,05,35,9.20
2015,05,30,05,36,9.20
2015,05,30,05,37,9.30
2015,05,30,05,38,9.40
2015,05,30,05,39,9.40
2015,05,30,05,40,9.40
2015,05,30,05,41,9.40
2015,05,30,05,42,9.40
2015,05,30,05,43,9.40
2015,05,30,05,44,9.40
2015,05,30,05,45,9.40
2015,05,30,05,46,9.40
2015,05,30,05,47,9.30
2015,05,30,05,48,9.30
2015,05,30,05,49,9.30
2015,05,30,05,50,9.20
2015,05,30,05,51,9.20
2015,05,30,05,52,9.20
2015,05,30,05,53,9.20
2015,05,30,05,54,9.20
2015,05,30,05,55,9.20
2015,05,30,05,56,9.20
2015,05,30,05,57,9.20
2015,05,30,05,58,9.20
2015,05,30,05,59,9.20
2015,05,30,06,00,9.20
2015,05,30,06,01,9.30
2015,05,30,06,02,9.30
2015,05,30,06,03,9.30
2015,05,30,06,04,9.30
2015,05,30,06,05,9.40
2015,05,30,06,06,9.40
2015,05,30,06,07,9.40
2015,05,30,06,08,9.40
2015,05,30,06,09,9.50
2015,05,30,06,10,9.50
2015,05,30,06,11,9.60
2015,05,30,06,12,9.70
2015,05,30,06,13,9.80
2015,05,30,06,14,9.90
2015,05,30,06,15,9.90
2015,05,30,06,16,10.00
2015,05,30,06,17,10.10
2015,05,30,06,18,10.10
2015,05,30,06,19,10.10
2015,05,30,06,20,10.10
2015,05,30,06,21,10.20
2015,05,30,06,22,10.20
2015,05,30,06,23,10.20
2015,05,30,06,24,10.20
2015,05,30,06,25,10.20
2015,05,30,06,26,10.20
2015,05,30,06,27,10.20
2015,05,30,06,28,10.30
2015,05,30,06,29,10.30
2015,05,30,06,30,10.30
2015,05,30,06,31,10.40
2015,05,30,06,32,10.50
2015,05,30,06,33,10.50
2015,05,30,06,34,10.70
2015,05,30,06,35,10.80
2015,05,30,06,36,10.90
2015,05,30,06,37,11.00
2015,05,30,06,38,11.10
2015,05,30,06,39,11.20
2015,05,30,06,40,11.30
2015,05,30,06,41,11.40
2015,05,30,06,42,11.50
2015,05,30,06,43,11.50
2015,05,30,06,44,11.60
2015,05,30,06,45,11.70
2015,05,30,06,46,11.80
2015,05,30,06,47,11.80
2015,05,30,06,48,11.90
2015,05,30,06,49,11.90
2015,05,30,06,50,12.00
2015,05,30,06,51,12.10
2015,05,30,06,52,12.10
2015,05,30,06,53,12.20
2015,05,30,06,54,12.20
2015,05,30,06,55,12.20
2015,05,30,06,56,12.30
2015,05,30,06,57,12.30
2015,05,30,06,58,12.30
2015,05,30,06,59,12.40
2015,05,30,07,00,12.40
2015,05,30,07,01,12.40
2015,05,30,07,02,12.50
2015,05,30,07,03,12.50
2015,05,30,07,04,12.60
2015,05,30,07,05,12.60
2015,05,30,07,06,12.60
2015,05,30,07,07,12.70
2015,05,30,07,08,12.70
2015,05,30,07,09,12.70
2015,05,30,07,10,12.80
2015,05,30,07,11,12.80
2015,05,30,07,12,12.80
2015,05,30,07,13,12.90
2015,05,30,07,14,12.90
2015,05,30,07,15,12.90
2015,05,30,07,16,13.00
2015,05,30,07,17,13.00
2015,05,30,07,18,13.00
2015,05,30,07,19,13.10
2015,05,30,07,20,13.10
2015,05,30,07,21,13.10
2015,05,30,07,22,13.10
2015,05,30,07,23,13.20
2015,05,30,07,24,13.20
2015,05,30,07,25,13.20
2015,05,30,07,26,13.30
2015,05,30,07,27,13.30
2015,05,30,07,28,13.30
2015,05,30,07,29,13.30
2015,05,30,07,30,13.40
2015,05,30,07,31,13.40
2015,05,30,07,32,13.40
2015,05,30,07,33,13.40
2015,05,30,07,34,13.50
2015,05,30,07,35,13.60
2015,05,30,07,36,13.60
2015,05,30,07,37,13.60
2015,05,30,07,38,13.70
2015,05,30,07,39,13.70
2015,05,30,07,40,13.70
2015,05,30,07,41,13.70
2015,05,30,07,42,13.80
2015,05,30,07,43,13.80
2015,05,30,07,44,13.80
2015,05,30,07,45,13.80
2015,05,30,07,46,13.90
2015,05,30,07,47,13.90
2015,05,30,07,48,13.90
2015,05,30,07,49,14.00
2015,05,30,07,50,14.10
2015,05,30,07,51,14.10
2015,05,30,07,52,14.10
2015,05,30,07,53,14.20
2015,05,30,07,54,14.30
2015,05,30,07,55,14.40
2015,05,30,07,56,14.50
2015,05,30,07,57,14.50
2015,05,30,07,58,14.60
2015,05,30,07,59,14.60
2015,05,30,08,00,14.70
2015,05,30,08,01,14.70
2015,05,30,08,02,14.70
2015,05,30,08,03,14.80
2015,05,30,08,04,14.80
2015,05,30,08,05,14.80
2015,05,30,08,06,14.80
2015,05,30,08,07,14.80
2015,05,30,08,08,14.90
2015,05,30,08,09,15.00
2015,05,30,08,10,15.10
2015,05,30,08,11,15.20
2015,05,30,08,12,15.20
2015,05,30,08,13,15.20
2015,05,30,08,14,15.20
2015,05,30,08,15,15.20
2015,05,30,08,16,15.30
2015,05,30,08,17,15.30
2015,05,30,08,18,15.30
2015,05,30,08,19,15.30
2015,05,30,08,20,15.20
2015,05,30,08,21,15.20
2015,05,30,08,22,15.20
2015,05,30,08,23,15.20
2015,05,30,08,24,15.10
2015,05,30,08,25,15.10
2015,05,30,08,26,15.10
2015,05,30,08,27,15.10
2015,05,30,08,28,15.10
2015,05,30,08,29,15.20
2015,05,30,08,30,15.20
2015,05,30,08,31,15.20
2015,05,30,08,32,15.30
2015,05,30,08,33,15.30
2015,05,30,08,34,15.30
2015,05,30,08,35,15.30
2015,05,30,08,36,15.30
2015,05,30,08,37,15.30
2015,05,30,08,38,15.30
2015,05,30,08,39,15.30
2015,05,30,08,40,15.30
2015,05,30,08,41,15.20
2015,05,30,08,42,15.20
2015,05,30,08,43,15.10
2015,05,30,08,44,15.00
2015,05,30,08,45,15.00
2015,05,30,08,46,15.10
2015,05,30,08,47,15.10
2015,05,30,08,48,15.20
2015,05,30,08,49,15.30
2015,05,30,08,50,15.30
2015,05,30,08,51,15.40
2015,05,30,08,52,15.40
2015,05,30,08,53,15.50
2015,05,30,08,54,15.50
2015,05,30,08,55,15.60
2015,05,30,08,56,15.60
2015,05,30,08,57,15.60
2015,05,30,08,58,15.50
2015,05,30,08,59,15.40
2015,05,30,09,00,15.30
2015,05,30,09,01,15.30
2015,05,30,09,02,15.30
2015,05,30,09,03,15.30
2015,05,30,09,04,15.30
2015,05,30,09,05,15.30
2015,05,30,09,06,15.30
2015,05,30,09,07,15.30
2015,05,30,09,08,15.30
2015,05,30,09,09,15.20
2015,05,30,09,10,15.20
2015,05,30,09,11,15.20
2015,05,30,09,12,15.20
2015,05,30,09,13,15.10
2015,05,30,09,14,15.10
2015,05,30,09,15,15.10
2015,05,30,09,16,15.10
2015,05,30,09,17,15.10
2015,05,30,09,18,15.10
2015,05,30,09,19,15.10
2015,05,30,09,20,15.20
2015,05,30,09,21,15.10
2015,05,30,09,22,15.20
2015,05,30,09,23,15.10
2015,05,30,09,24,15.10
2015,05,30,09,25,15.20
2015,05,30,09,26,15.20
2015,05,30,09,27,15.20
2015,05,30,09,28,15.20
2015,05,30,09,29,15.20
2015,05,30,09,30,15.20
2015,05,30,09,31,15.20
2015,05,30,09,32,15.20
2015,05,30,09,33,15.20
2015,05,30,09,34,15.20
2015,05,30,09,35,15.10
2015,05,30,09,36,15.10
2015,05,30,09,37,15.10
2015,05,30,09,38,15.20
2015,05,30,09,39,15.20
2015,05,30,09,40,15.20
2015,05,30,09,41,15.20
2015,05,30,09,42,15.10
2015,05,30,09,43,15.10
2015,05,30,09,44,15.20
2015,05,30,09,45,15.20
2015,05,30,09,46,15.30
2015,05,30,09,47,15.30
2015,05,30,09,48,15.30
2015,05,30,09,49,15.30
2015,05,30,09,50,15.30
2015,05,30,09,51,15.30
2015,05,30,09,52,15.30
2015,05,30,09,53,15.30
2015,05,30,09,54,15.30
2015,05,30,09,55,15.30
2015,05,30,09,56,15.30
2015,05,30,09,57,15.30
2015,05,30,09,58,15.30
2015,05,30,09,59,15.30
2015,05,30,10,00,15.40
2015,05,30,10,01,15.40
2015,05,30,10,02,15.40
2015,05,30,10,03,15.40
2015,05,30,10,04,15.40
2015,05,30,10,05,15.40
2015,05,30,10,06,15.40
2015,05,30,10,07,15.30
2015,05,30,10,08,15.30
2015,05,30,10,09,15.40
2015,05,30,10,10,15.40
2015,05,30,10,11,15.40
2015,05,30,10,12,15.40
2015,05,30,10,13,15.40
2015,05,30,10,14,15.40
2015,05,30,10,15,15.50
2015,05,30,10,16,15.40
2015,05,30,10,17,15.40
2015,05,30,10,18,15.40
2015,05,30,10,19,15.40
2015,05,30,10,20,15.40
2015,05,30,10,21,15.50
2015,05,30,10,22,15.50
2015,05,30,10,23,15.60
2015,05,30,10,24,15.70
2015,05,30,10,25,15.80
2015,05,30,10,26,15.80
2015,05,30,10,27,15.70
2015,05,30,10,28,15.70
2015,05,30,10,29,15.60
2015,05,30,10,30,15.60
2015,05,30,10,31,15.60
2015,05,30,10,32,15.60
2015,05,30,10,33,15.60
2015,05,30,10,34,15.60
2015,05,30,10,35,15.60
2015,05,30,10,36,15.50
2015,05,30,10,37,15.50
2015,05,30,10,38,15.50
2015,05,30,10,39,15.40
2015,05,30,10,40,15.40
2015,05,30,10,41,15.40
2015,05,30,10,42,15.40
2015,05,30,10,43,15.50
2015,05,30,10,44,15.50
2015,05,30,10,45,15.50
2015,05,30,10,46,15.60
2015,05,30,10,47,15.60
2015,05,30,10,48,15.70
2015,05,30,10,49,15.70
2015,05,30,10,50,15.80
2015,05,30,10,51,15.80
2015,05,30,10,52,15.80
2015,05,30,10,53,15.80
2015,05,30,10,54,15.90
2015,05,30,10,55,15.90
2015,05,30,10,56,16.00
2015,05,30,10,57,16.20
2015,05,30,10,58,16.30
2015,05,30,10,59,16.40
2015,05,30,11,00,16.50
2015,05,30,11,01,16.60
2015,05,30,11,02,16.70
2015,05,30,11,03,16.70
2015,05,30,11,04,16.80
2015,05,30,11,05,16.80
2015,05,30,11,06,16.80
2015,05,30,11,07,16.80
2015,05,30,11,08,16.80
2015,05,30,11,09,16.80
2015,05,30,11,10,16.80
2015,05,30,11,11,16.80
2015,05,30,11,12,16.80
2015,05,30,11,13,16.80
2015,05,30,11,14,16.70
2015,05,30,11,15,16.60
2015,05,30,11,16,16.60
2015,05,30,11,17,16.50
2015,05,30,11,18,16.30
2015,05,30,11,19,16.20
2015,05,30,11,20,16.20
2015,05,30,11,21,16.20
2015,05,30,11,22,16.20
2015,05,30,11,23,16.20
2015,05,30,11,24,16.20
2015,05,30,11,25,16.30
2015,05,30,11,26,16.30
2015,05,30,11,27,16.30
2015,05,30,11,28,16.20
2015,05,30,11,29,16.20
2015,05,30,11,30,16.10
2015,05,30,11,31,16.10
2015,05,30,11,32,16.10
2015,05,30,11,33,16.10
2015,05,30,11,34,16.20
2015,05,30,11,35,16.20
2015,05,30,11,36,16.20
2015,05,30,11,37,16.20
2015,05,30,11,38,16.20
2015,05,30,11,39,16.30
2015,05,30,11,40,16.30
2015,05,30,11,41,16.30
2015,05,30,11,42,16.40
2015,05,30,11,43,16.40
2015,05,30,11,44,16.30
2015,05,30,11,45,16.30
2015,05,30,11,46,16.30
2015,05,30,11,47,16.30
2015,05,30,11,48,16.20
2015,05,30,11,49,16.10
2015,05,30,11,50,16.20
2015,05,30,11,51,16.20
2015,05,30,11,52,16.20
2015,05,30,11,53,16.20
2015,05,30,11,54,16.20
2015,05,30,11,55,16.30
2015,05,30,11,56,16.30
2015,05,30,11,57,16.30
2015,05,30,11,58,16.30
2015,05,30,11,59,16.40
2015,05,30,12,00,16.50
2015,05,30,12,01,16.60
2015,05,30,12,02,16.70
2015,05,30,12,03,16.70
2015,05,30,12,04,16.70
2015,05,30,12,05,16.80
2015,05,30,12,06,16.80
2015,05,30,12,07,16.80
2015,05,30,12,08,16.80
2015,05,30,12,09,16.80
2015,05,30,12,10,16.80
2015,05,30,12,11,16.80
2015,05,30,12,12,16.80
2015,05,30,12,13,16.90
2015,05,30,12,14,17.00
2015,05,30,12,15,17.00
2015,05,30,12,16,17.10
2015,05,30,12,17,17.20
2015,05,30,12,18,17.30
2015,05,30,12,19,17.30
2015,05,30,12,20,17.30
2015,05,30,12,21,17.30
2015,05,30,12,22,17.30
2015,05,30,12,23,17.30
2015,05,30,12,24,17.30
2015,05,30,12,25,17.30
2015,05,30,12,26,17.30
2015,05,30,12,27,17.30
2015,05,30,12,28,17.30
2015,05,30,12,29,17.30
2015,05,30,12,30,17.20
2015,05,30,12,31,17.20
2015,05,30,12,32,17.20
2015,05,30,12,33,17.20
2015,05,30,12,34,17.30
2015,05,30,12,35,17.30
2015,05,30,12,36,17.40
2015,05,30,12,37,17.40
2015,05,30,12,38,17.40
2015,05,30,12,39,17.30
2015,05,30,12,40,17.40
2015,05,30,12,41,17.40
2015,05,30,12,42,17.50
2015,05,30,12,43,17.50
2015,05,30,12,44,17.50
2015,05,30,12,45,17.50
2015,05,30,12,46,17.60
2015,05,30,12,47,17.70
2015,05,30,12,48,17.80
2015,05,30,12,49,17.80
2015,05,30,12,50,17.90
2015,05,30,12,51,18.00
2015,05,30,12,52,18.00
2015,05,30,12,53,17.90
2015,05,30,12,54,17.90
2015,05,30,12,55,17.90
2015,05,30,12,56,17.90
2015,05,30,12,57,17.90
2015,05,30,12,58,18.00
2015,05,30,12,59,18.10
2015,05,30,13,00,18.20
2015,05,30,13,01,18.30
2015,05,30,13,02,18.40
2015,05,30,13,03,18.40
2015,05,30,13,04,18.40
2015,05,30,13,05,18.30
2015,05,30,13,06,18.30
2015,05,30,13,07,18.30
2015,05,30,13,08,18.20
2015,05,30,13,09,18.20
2015,05,30,13,10,18.30
2015,05,30,13,11,18.20
2015,05,30,13,12,18.30
2015,05,30,13,13,18.40
2015,05,30,13,14,18.40
2015,05,30,13,15,18.40
2015,05,30,13,16,18.30
2015,05,30,13,17,18.30
2015,05,30,13,18,18.30
2015,05,30,13,19,18.40
2015,05,30,13,20,18.40
2015,05,30,13,21,18.40
2015,05,30,13,22,18.50
2015,05,30,13,23,18.50
2015,05,30,13,24,18.50
2015,05,30,13,25,18.60
2015,05,30,13,26,18.60
2015,05,30,13,27,18.70
2015,05,30,13,28,18.60
2015,05,30,13,29,18.60
2015,05,30,13,30,18.60
2015,05,30,13,31,18.60
2015,05,30,13,32,18.50
2015,05,30,13,33,18.50
2015,05,30,13,34,18.50
2015,05,30,13,35,18.60
2015,05,30,13,36,18.60
2015,05,30,13,37,18.60
2015,05,30,13,38,18.60
2015,05,30,13,39,18.50
2015,05,30,13,40,18.50
2015,05,30,13,41,18.40
2015,05,30,13,42,18.30
2015,05,30,13,43,18.30
2015,05,30,13,44,18.30
2015,05,30,13,45,18.30
2015,05,30,13,46,18.30
2015,05,30,13,47,18.30
2015,05,30,13,48,18.30
2015,05,30,13,49,18.30
2015,05,30,13,50,18.30
2015,05,30,13,51,18.50
2015,05,30,13,52,18.60
2015,05,30,13,53,18.70
2015,05,30,13,54,18.70
2015,05,30,13,55,18.80
2015,05,30,13,56,18.80
2015,05,30,13,57,18.90
2015,05,30,13,58,19.00
2015,05,30,13,59,19.10
2015,05,30,14,00,19.20
2015,05,30,14,01,19.20
2015,05,30,14,02,19.20
2015,05,30,14,03,19.30
2015,05,30,14,04,19.30
2015,05,30,14,05,19.40
2015,05,30,14,06,19.30
2015,05,30,14,07,19.20
2015,05,30,14,08,19.10
2015,05,30,14,09,19.10
2015,05,30,14,10,19.10
2015,05,30,14,11,19.00
2015,05,30,14,12,19.00
2015,05,30,14,13,18.90
2015,05,30,14,14,18.90
2015,05,30,14,15,18.90
2015,05,30,14,16,19.00
2015,05,30,14,17,18.90
2015,05,30,14,18,18.90
2015,05,30,14,19,18.90
2015,05,30,14,20,18.90
2015,05,30,14,21,18.90
2015,05,30,14,22,18.80
2015,05,30,14,23,18.80
2015,05,30,14,24,18.80
2015,05,30,14,25,18.80
2015,05,30,14,26,18.80
2015,05,30,14,27,18.80
2015,05,30,14,28,18.80
2015,05,30,14,29,18.80
2015,05,30,14,30,18.70
2015,05,30,14,31,18.80
2015,05,30,14,32,18.80
2015,05,30,14,33,18.80
2015,05,30,14,34,18.90
2015,05,30,14,35,18.90
2015,05,30,14,36,18.90
2015,05,30,14,37,19.00
2015,05,30,14,38,19.00
2015,05,30,14,39,18.90
2015,05,30,14,40,18.90
2015,05,30,14,41,18.90
2015,05,30,14,42,18.90
2015,05,30,14,43,18.90
2015,05,30,14,44,19.00
2015,05,30,14,45,18.90
2015,05,30,14,46,18.90
2015,05,30,14,47,18.90
2015,05,30,14,48,18.80
2015,05,30,14,49,18.90
2015,05,30,14,50,19.00
2015,05,30,14,51,19.00
2015,05,30,14,52,19.10
2015,05,30,14,53,19.10
2015,05,30,14,54,19.10
2015,05,30,14,55,19.20
2015,05,30,14,56,19.10
2015,05,30,14,57,19.20
2015,05,30,14,58,19.20
2015,05,30,14,59,19.10
2015,05,30,15,00,19.10
2015,05,30,15,01,19.10
2015,05,30,15,02,19.20
2015,05,30,15,03,19.20
2015,05,30,15,04,19.30
2015,05,30,15,05,19.30
2015,05,30,15,06,19.30
2015,05,30,15,07,19.20
2015,05,30,15,08,19.20
2015,05,30,15,09,19.20
2015,05,30,15,10,19.10
2015,05,30,15,11,19.10
2015,05,30,15,12,19.20
2015,05,30,15,13,19.30
2015,05,30,15,14,19.30
2015,05,30,15,15,19.40
2015,05,30,15,16,19.40
2015,05,30,15,17,19.40
2015,05,30,15,18,19.40
2015,05,30,15,19,19.50
2015,05,30,15,20,19.40
2015,05,30,15,21,19.40
2015,05,30,15,22,19.30
2015,05,30,15,23,19.30
2015,05,30,15,24,19.20
2015,05,30,15,25,19.30
2015,05,30,15,26,19.40
2015,05,30,15,27,19.40
2015,05,30,15,28,19.40
2015,05,30,15,29,19.30
2015,05,30,15,30,19.30
2015,05,30,15,31,19.30
2015,05,30,15,32,19.30
2015,05,30,15,33,19.30
2015,05,30,15,34,19.40
2015,05,30,15,35,19.40
2015,05,30,15,36,19.40
2015,05,30,15,37,19.40
2015,05,30,15,38,19.50
2015,05,30,15,39,19.50
2015,05,30,15,40,19.40
2015,05,30,15,41,19.50
2015,05,30,15,42,19.60
2015,05,30,15,43,19.70
2015,05,30,15,44,19.90
2015,05,30,15,45,20.00
2015,05,30,15,46,20.10
2015,05,30,15,47,20.20
2015,05,30,15,48,20.20
2015,05,30,15,49,20.20
2015,05,30,15,50,20.10
2015,05,30,15,51,20.10
2015,05,30,15,52,20.10
2015,05,30,15,53,20.00
2015,05,30,15,54,19.90
2015,05,30,15,55,19.90
2015,05,30,15,56,19.90
2015,05,30,15,57,19.90
2015,05,30,15,58,19.90
2015,05,30,15,59,19.90
2015,05,30,16,00,19.90
2015,05,30,16,01,19.90
2015,05,30,16,02,19.90
2015,05,30,16,03,19.90
2015,05,30,16,04,20.10
2015,05,30,16,05,20.20
2015,05,30,16,06,20.30
2015,05,30,16,07,20.40
2015,05,30,16,08,20.30
2015,05,30,16,09,20.20
2015,05,30,16,10,20.20
2015,05,30,16,11,20.20
2015,05,30,16,12,20.30
2015,05,30,16,13,20.40
2015,05,30,16,14,20.40
2015,05,30,16,15,20.30
2015,05,30,16,16,20.20
2015,05,30,16,17,20.10
2015,05,30,16,18,20.00
2015,05,30,16,19,19.90
2015,05,30,16,20,19.80
2015,05,30,16,21,19.70
2015,05,30,16,22,19.60
2015,05,30,16,23,19.50
2015,05,30,16,24,19.50
2015,05,30,16,25,19.40
2015,05,30,16,26,19.40
2015,05,30,16,27,19.40
2015,05,30,16,28,19.50
2015,05,30,16,29,19.60
2015,05,30,16,30,19.60
2015,05,30,16,31,19.70
2015,05,30,16,32,19.70
2015,05,30,16,33,19.70
2015,05,30,16,34,19.60
2015,05,30,16,35,19.60
2015,05,30,16,36,19.60
2015,05,30,16,37,19.60
2015,05,30,16,38,19.70
2015,05,30,16,39,19.80
2015,05,30,16,40,19.80
2015,05,30,16,41,19.80
2015,05,30,16,42,19.70
2015,05,30,16,43,19.70
2015,05,30,16,44,19.70
2015,05,30,16,45,19.70
2015,05,30,16,46,19.80
2015,05,30,16,47,19.80
2015,05,30,16,48,19.80
2015,05,30,16,49,19.70
2015,05,30,16,50,19.80
2015,05,30,16,51,19.80
2015,05,30,16,52,19.80
2015,05,30,16,53,19.80
2015,05,30,16,54,19.90
2015,05,30,16,55,19.90
2015,05,30,16,56,20.00
2015,05,30,16,57,20.10
2015,05,30,16,58,20.10
2015,05,30,16,59,20.00
2015,05,30,17,00,20.00
2015,05,30,17,01,19.90
2015,05,30,17,02,19.90
2015,05,30,17,03,19.90
2015,05,30,17,04,19.80
2015,05,30,17,05,19.80
2015,05,30,17,06,19.70
2015,05,30,17,07,19.70
2015,05,30,17,08,19.60
2015,05,30,17,09,19.60
2015,05,30,17,10,19.70
2015,05,30,17,11,19.70
2015,05,30,17,12,19.80
2015,05,30,17,13,19.80
2015,05,30,17,14,19.80
2015,05,30,17,15,19.80
2015,05,30,17,16,19.70
2015,05,30,17,17,19.70
2015,05,30,17,18,19.70
2015,05,30,17,19,19.70
2015,05,30,17,20,19.70
2015,05,30,17,21,19.70
2015,05,30,17,22,19.70
2015,05,30,17,23,19.70
2015,05,30,17,24,19.70